Wind_Speed
31 21 26 31 22 21 12 13 14 17 15 22 26 30 31 30 32 31 30 28 28 26 21 31 39 48 53 53 54 52 45 44 46 44 40 41 38 37 36 34 31 29 25 23
24 26 15 15 15 12 13 19 20 19 20 23 29 35 32 29 31 31 28 30 32 32 28 29 32 35 41 45 50 51 50 51 46 46 45 40 42 41 39 36 35 32 29 26
20 14 19 15 13 14 13 14 18 21 22 25 32 40 34 26 23 21 13 16 20 22 27 29 32 34 35 37 38 40 45 52 51 48 44 44 45 44 43 40 37 37 33 27
15 16 16 16 17 16 14 17 20 22 18 10 11 10 29 20 18 18 17 17 18 18 18 20 24 29 36 39 40 42 42 43 56 54 51 48 48 49 46 42 39 38 37 32
9 20 16 17 22 16 15 15 13 13 15 19 19 10 12 16 11 8 11 9 5 8 13 12 12 16 21 28 33 40 45 45 47 53 56 53 49 48 45 45 43 40 41 36
8 13 16 13 12 17 16 13 11 13 12 5 6 11 9 1 7 8 6 8 7 10 17 20 20 20 21 23 26 30 34 47 48 53 54 54 52 49 43 43 44 42 39 38
13 10 12 11 13 14 16 10 1 2 1 6 3 6 15 7 6 11 11 14 18 11 13 19 23 23 27 29 29 27 25 27 39 51 55 61 58 51 48 43 41 43 42 41
15 7 16 11 17 9 18 10 3 4 3 4 4 7 3 2 11 15 17 15 16 16 18 20 25 25 27 31 32 34 34 30 28 33 44 53 60 56 49 50 45 42 42 44
15 5 6 6 17 14 14 10 8 3 5 2 7 7 12 12 5 8 14 20 20 22 23 24 25 27 30 31 32 34 35 36 33 37 39 45 51 49 48 49 48 46 43 40
10 7 7 9 14 15 8 10 6 5 1 4 6 7 13 7 13 13 9 13 17 20 23 25 30 30 34 38 41 41 38 36 34 36 35 40 44 45 41 41 43 45 42 41
13 5 12 12 11 21 19 10 6 4 4 3 4 8 6 6 13 19 27 30 33 42 42 41 46 45 47 46 40 35 34 37 32 27 29 33 36 40 40 40 38 38 40 40
14 8 8 17 4 7 12 19 14 5 3 6 2 15 6 7 15 19 39 38 34 29 32 31 29 25 34 37 37 37 35 34 29 25 26 28 30 34 36 37 36 36 34 32
16 6 5 3 12 16 15 19 21 19 15 15 2 12 12 23 35 33 33 35 33 26 31 31 26 32 30 29 36 38 33 26 22 23 24 25 25 30 33 35 35 33 31 31
10 9 5 7 4 7 12 14 16 20 11 12 25 40 35 37 33 31 29 30 33 36 27 19 21 25 35 33 29 29 27 22 19 22 19 22 24 29 34 37 35 31 31 31
13 7 12 13 10 10 12 13 15 24 28 26 35 35 29 32 29 28 31 32 34 28 20 13 16 18 21 29 34 34 35 21 18 19 17 20 18 23 23 28 28 29 29 29
16 7 8 9 11 16 22 24 24 26 28 35 30 33 22 35 26 31 30 28 22 20 18 9 12 11 11 13 13 16 22 17 14 13 15 16 24 23 22 24 22 27 27 29
15 9 5 3 4 8 13 10 15 12 17 21 26 26 27 27 29 29 24 15 15 15 13 7 7 10 12 13 10 7 7 6 10 12 14 20 19 20 20 19 25 30 30 31
10 10 5 4 5 1 5 2 3 10 15 14 14 20 22 21 22 20 18 16 11 9 8 6 7 7 7 6 5 5 9 9 14 18 16 18 18 19 24 27 28 35 31 29
6 8 2 2 5 11 3 4 6 14 13 5 22 21 15 14 17 19 15 12 7 4 6 5 6 9 11 8 5 4 7 10 16 12 12 15 20 19 24 30 26 17 17 12
10 9 6 1 2 3 4 4 8 10 3 20 20 14 13 15 13 20 14 15 9 5 2 1 4 5 7 7 6 6 7 10 10 8 11 15 16 16 15 10 9 7 5 6
17 14 15 12 6 9 6 6 8 3 10 17 11 10 12 13 13 15 18 18 12 14 11 10 8 7 5 2 5 7 4 3 6 2 3 9 6 9 10 9 8 7 7 7
16 11 9 11 6 9 5 7 7 10 12 16 9 10 15 9 14 16 16 19 17 15 10 6 5 3 2 5 6 9 5 9 12 13 15 15 15 12 7 5 2 3 6 9
7 10 3 9 3 5 9 6 8 10 9 12 12 8 10 11 11 13 16 16 15 17 19 19 19 22 23 21 19 20 20 20 18 18 15 12 9 6 3 1 3 7 9 11
10 10 12 8 1 2 8 12 8 10 9 10 12 7 6 7 7 7 10 12 14 15 17 18 18 18 20 23 22 20 19 16 15 12 11 8 5 3 4 5 5 7 10 13
10 9 10 18 14 12 10 8 9 11 10 9 12 10 6 5 5 2 4 5 9 12 15 16 14 13 14 15 15 14 12 12 11 9 7 5 4 4 4 5 7 10 13 16
16 19 17 18 16 17 18 15 14 14 12 11 12 10 10 7 6 4 4 0 6 7 8 12 11 12 10 12 10 11 11 10 8 7 6 5 4 5 7 11 13 16 18 21
Wind_Direction
197 197 203 184 214 212 219 237 234 242 238 258 250 251 252 254 255 257 263 261 253 249 237 236 236 236 241 243 240 240 240 239 247 250 250 255 255 253 252 255 257 258 260 261
201 215 217 223 226 227 243 234 240 248 255 265 263 261 263 270 276 277 267 258 259 257 248 236 237 235 235 239 243 240 238 237 239 244 250 254 261 258 256 255 255 254 255 254
205 212 215 221 207 204 227 238 248 266 264 266 272 276 277 279 274 274 275 257 257 261 256 250 243 240 240 240 240 240 236 231 234 238 240 246 248 251 251 252 254 257 257 258
205 214 207 208 206 214 223 244 254 264 279 281 281 292 276 281 270 272 264 264 258 254 255 247 241 239 239 241 242 240 238 235 230 235 241 242 247 251 256 262 261 260 260 259
179 190 191 203 216 216 233 245 250 260 275 287 280 249 285 289 292 259 269 283 275 292 263 254 254 249 244 242 242 242 240 239 237 235 241 244 246 247 253 260 260 257 257 259
178 187 205 207 201 215 231 239 251 272 283 280 270 222 293 241 118 9 336 283 286 295 285 282 276 268 262 257 249 244 243 236 234 235 239 242 245 246 243 249 253 254 256 255
178 183 201 202 199 197 217 223 336 337 321 230 297 232 253 180 302 305 281 262 279 272 278 286 290 288 281 278 276 275 264 255 244 236 237 239 242 243 246 244 250 254 259 259
185 206 216 211 207 202 209 204 196 215 226 287 256 237 128 238 281 286 280 270 274 279 282 280 284 279 273 273 274 276 274 270 261 256 249 239 242 244 244 246 246 253 256 264
174 166 164 208 209 202 196 217 225 240 255 305 255 273 285 283 329 258 257 257 255 260 264 261 259 272 274 275 280 278 277 274 271 258 256 253 241 240 246 245 248 250 254 256
154 132 177 163 189 205 213 201 181 204 103 269 276 276 249 264 276 253 245 264 267 262 260 260 259 265 271 271 274 280 282 279 282 276 259 251 250 243 241 240 239 246 252 254
166 175 173 191 216 206 203 192 193 218 218 192 306 270 243 293 286 275 285 295 288 285 286 279 269 264 271 274 273 271 271 277 273 268 257 248 249 241 234 237 238 244 248 253
184 178 174 202 192 182 235 233 218 212 192 231 274 273 307 299 310 305 302 305 304 308 310 305 273 249 251 255 261 265 271 273 272 263 259 245 239 238 236 235 238 243 249 242
186 188 151 185 228 225 232 226 228 240 270 255 211 264 300 314 307 313 310 314 313 314 310 300 286 247 246 252 259 268 277 265 257 253 255 239 232 233 235 234 237 241 238 240
208 227 203 190 153 187 213 217 216 221 240 248 245 285 312 324 324 319 317 321 319 319 306 288 288 281 252 252 261 269 275 257 248 248 246 238 239 232 232 231 232 233 232 237
207 233 237 238 224 226 228 230 230 233 255 251 288 290 317 331 322 321 317 319 318 317 310 269 280 288 286 275 270 270 268 254 258 242 243 238 233 224 223 218 217 226 232 234
213 242 268 282 248 244 249 250 251 250 261 265 295 296 328 328 317 317 320 321 322 333 324 271 277 283 295 295 283 274 259 236 236 233 230 219 224 226 207 212 218 229 230 227
218 243 255 260 208 280 276 261 238 253 274 289 287 315 305 318 324 327 329 332 333 338 333 321 287 308 301 307 321 293 217 225 233 237 239 231 232 212 217 226 226 223 223 231
235 222 233 284 305 262 192 265 215 300 314 295 323 321 320 319 334 341 342 337 337 348 5 11 349 328 314 322 307 287 293 249 230 230 212 246 233 221 214 225 225 230 212 228
223 202 217 269 285 289 207 204 314 318 331 328 343 331 335 343 356 359 350 345 335 352 16 344 321 315 311 312 309 282 265 257 270 270 254 237 213 227 225 230 219 221 215 222
206 218 239 256 284 254 192 295 321 325 317 342 340 348 356 1 360 17 15 5 18 2 27 343 334 326 318 311 285 258 244 250 264 228 217 237 235 211 202 187 177 172 209 231
205 219 232 247 271 280 218 280 337 348 323 340 346 359 9 10 3 15 22 34 28 35 62 62 68 59 32 283 196 197 211 222 283 252 240 228 166 126 137 156 170 189 219 253
197 201 214 215 230 260 208 312 330 324 338 356 349 353 15 4 38 38 30 44 54 52 49 42 39 55 124 108 89 148 157 109 111 118 119 122 131 139 130 128 190 289 315 312
216 211 244 215 251 220 298 299 323 333 335 354 349 344 22 30 31 34 38 48 50 56 60 66 78 86 98 103 109 116 116 113 114 114 115 110 109 111 114 91 346 335 320 306
244 222 242 255 142 271 298 295 299 331 326 337 348 333 326 344 9 22 41 39 50 73 78 77 80 88 93 100 102 103 104 108 108 103 100 103 109 79 24 0 335 312 308 314
226 249 259 259 275 284 294 285 284 306 315 315 332 339 320 308 302 330 48 58 60 55 94 95 89 95 102 99 102 110 113 109 100 93 86 78 64 45 13 343 329 326 327 326
240 245 257 267 278 282 282 281 283 294 297 301 301 309 327 297 276 214 171 167 112 105 100 102 96 100 105 111 108 104 102 101 102 95 79 63 40 11 355 349 344 338 333 329
Height
3053 3056 3056 3058 3067 3071 3074 3075 3075 3077 3077 3074 3072 3069 3070 3071 3070 3071 3073 3075 3076 3077 3083 3082 3084 3087 3089 3091 3097 3100 3102 3104 3105 3105 3107 3109 3114 3117 3119 3122 3125 3127 3128 3129
3053 3052 3057 3060 3064 3067 3070 3071 3073 3073 3074 3072 3068 3062 3064 3065 3064 3065 3067 3067 3067 3069 3071 3074 3076 3078 3079 3083 3085 3089 3092 3095 3097 3098 3101 3103 3105 3108 3111 3115 3116 3119 3122 3123
3051 3053 3057 3059 3062 3065 3067 3068 3070 3072 3070 3068 3064 3056 3057 3060 3057 3056 3058 3059 3061 3062 3063 3066 3067 3069 3071 3073 3076 3079 3082 3085 3088 3090 3092 3095 3097 3098 3100 3104 3108 3111 3115 3117
3050 3052 3054 3058 3061 3062 3064 3067 3069 3069 3069 3066 3065 3056 3050 3054 3054 3054 3055 3054 3055 3056 3057 3058 3059 3060 3062 3064 3067 3070 3072 3075 3078 3080 3082 3086 3088 3089 3092 3098 3102 3104 3107 3109
3048 3049 3053 3056 3058 3061 3064 3066 3067 3067 3066 3064 3061 3062 3045 3048 3049 3049 3051 3052 3053 3053 3052 3052 3053 3054 3055 3056 3058 3059 3062 3066 3069 3070 3072 3076 3080 3082 3086 3090 3092 3096 3098 3101
3047 3049 3053 3055 3057 3059 3061 3064 3066 3065 3064 3062 3055 3057 3046 3045 3047 3049 3049 3050 3049 3050 3049 3048 3048 3048 3048 3049 3049 3050 3051 3054 3058 3062 3063 3065 3068 3072 3077 3081 3084 3088 3092 3095
3047 3050 3051 3053 3056 3058 3060 3064 3065 3067 3066 3059 3053 3053 3044 3045 3047 3046 3046 3046 3045 3044 3044 3043 3042 3040 3042 3043 3043 3044 3045 3047 3049 3051 3054 3056 3057 3061 3066 3072 3077 3081 3084 3087
3045 3050 3049 3051 3054 3056 3058 3061 3060 3064 3063 3057 3051 3045 3044 3043 3043 3043 3041 3041 3039 3039 3039 3039 3037 3037 3036 3036 3036 3036 3038 3040 3042 3042 3043 3046 3049 3052 3057 3063 3069 3072 3075 3078
3043 3047 3047 3050 3052 3056 3056 3058 3060 3060 3060 3060 3047 3042 3041 3038 3038 3038 3037 3036 3036 3034 3034 3033 3031 3031 3030 3028 3028 3028 3030 3030 3031 3033 3033 3034 3037 3042 3048 3053 3059 3062 3065 3069
3041 3045 3047 3049 3051 3053 3054 3056 3059 3059 3064 3059 3044 3041 3036 3037 3036 3035 3034 3033 3031 3029 3027 3027 3024 3021 3019 3018 3019 3019 3020 3020 3019 3020 3022 3025 3027 3032 3040 3044 3048 3053 3057 3060
3040 3042 3047 3049 3048 3048 3052 3053 3055 3055 3055 3056 3052 3037 3033 3034 3033 3032 3030 3026 3023 3022 3018 3014 3011 3010 3009 3008 3009 3012 3012 3012 3011 3012 3013 3016 3019 3023 3029 3034 3040 3044 3048 3051
3040 3041 3044 3046 3047 3048 3049 3050 3052 3052 3053 3053 3052 3031 3030 3031 3031 3029 3025 3019 3014 3010 3005 3001 2997 2997 2998 3000 3001 3002 3003 3004 3005 3004 3005 3007 3011 3016 3022 3027 3032 3036 3040 3043
3039 3041 3042 3044 3046 3044 3044 3045 3048 3050 3050 3047 3050 3029 3027 3029 3027 3021 3014 3009 3005 3002 2998 2992 2990 2989 2989 2992 2994 2995 2996 2996 2997 2996 2998 3001 3004 3010 3015 3020 3024 3028 3031 3035
3039 3038 3037 3039 3038 3038 3040 3040 3043 3047 3046 3040 3032 3023 3025 3022 3017 3012 3007 3003 2997 2992 2988 2984 2983 2981 2983 2985 2987 2989 2991 2990 2987 2990 2993 2996 3000 3003 3008 3012 3016 3020 3024 3027
3037 3036 3036 3037 3037 3037 3037 3038 3040 3040 3035 3036 3024 3026 3021 3017 3011 3006 3000 2995 2989 2984 2980 2979 2979 2978 2979 2979 2981 2982 2981 2982 2983 2986 2990 2992 2996 2998 3001 3004 3010 3015 3018 3021
3034 3034 3034 3033 3033 3033 3033 3033 3034 3034 3033 3029 3023 3018 3018 3012 3007 3001 2995 2989 2985 2980 2975 2974 2976 2976 2976 2975 2974 2975 2975 2977 2980 2983 2986 2989 2991 2993 2998 3002 3007 3012 3013 3015
3033 3033 3033 3032 3032 3032 3030 3026 3028 3029 3028 3026 3022 3017 3013 3008 3002 2996 2990 2986 2983 2978 2974 2972 2973 2973 2974 2973 2973 2973 2974 2975 2978 2980 2983 2987 2992 2994 2997 2999 3003 3006 3009 3009
3032 3033 3033 3031 3031 3032 3025 3025 3026 3026 3023 3022 3019 3015 3010 3005 3000 2992 2987 2985 2981 2978 2974 2973 2973 2973 2973 2973 2973 2973 2970 2975 2974 2979 2981 2985 2989 2991 2994 2996 2998 3000 3000 3007
3031 3031 3032 3031 3029 3025 3023 3024 3024 3022 3019 3018 3015 3011 3007 3003 2999 2992 2987 2983 2979 2976 2974 2973 2972 2973 2972 2972 2972 2973 2974 2976 2976 2977 2980 2983 2989 2987 2990 2992 2993 2994 3001 3005
3029 3031 3032 3030 3030 3025 3022 3022 3021 3019 3017 3015 3012 3009 3005 3002 2998 2993 2987 2983 2978 2975 2972 2971 2971 2971 2970 2971 2971 2973 2974 2975 2976 2979 2980 2982 2984 2982 2989 2992 2996 2999 3003 3004
3027 3028 3029 3029 3029 3021 3020 3020 3019 3019 3022 3013 3011 3008 3005 3002 2998 2994 2988 2984 2981 2977 2973 2973 2972 2971 2971 2971 2971 2975 2976 2978 2979 2979 2980 2984 2987 2990 2994 2997 2999 3001 3002 3004
3021 3024 3024 3025 3027 3022 3019 3019 3019 3018 3015 3012 3010 3007 3004 3002 2999 2995 2991 2987 2985 2981 2978 2976 2973 2973 2972 2973 2974 2977 2979 2980 2981 2982 2986 2988 2992 2995 2997 2998 3000 3000 2999 3000
3020 3019 3019 3020 3018 3017 3017 3017 3016 3014 3013 3011 3009 3007 3005 3003 3001 2999 2995 2992 2989 2986 2983 2981 2980 2978 2977 2978 2979 2982 2984 2986 2987 2988 2990 2992 2994 2996 2997 2998 2998 2997 2998 2999
3016 3017 3016 3017 3015 3015 3016 3015 3014 3012 3011 3010 3008 3006 3005 3004 3002 3001 2999 2997 2994 2992 2990 2989 2987 2987 2986 2986 2987 2988 2989 2990 2991 2992 2993 2995 2997 2997 2997 2997 2998 2998 2998 2996
3014 3013 3013 3012 3013 3012 3012 3012 3011 3010 3009 3008 3007 3006 3004 3003 3002 3001 3000 2999 2998 2997 2995 2995 2995 2994 2993 2992 2992 2992 2993 2993 2994 2995 2996 2997 2998 2998 2998 2998 2997 2996 2994 2992
3010 3010 3010 3009 3009 3009 3009 3009 3008 3007 3006 3005 3005 3003 3002 3001 3000 2999 2999 2999 2999 2999 2998 2998 2998 2997 2997 2996 2996 2997 2997 2997 2997 2998 2998 2998 2998 2998 2997 2995 2993 2992 2990 2988